Weather observations for the past three days for
Cocoa - Patrick Air Force Base
Metric (Imperial)
Date Time (edt) Wind (kph) Vis. (km) Weather Sky Cond. Temperature (ºC) Relative Humidity Wind Chill (°C) Heat Index (°C) Pressure Precipitation (cm)
Air Dwpt 6 hour altimeter (cm) sea level (mb) 1 hr 3 hr 6 hr
Max. Min.
02 10:55 NE 11 16.09 Fair CLR 30.2 26.1 79% 38 76.15 1015.7
02 09:55 NE 11 16.09 Fair CLR 29.9 25.4 77% 37 76.12 1015.3
02 08:55 N 11 16.09 Fair CLR 28.7 25.3 82% 34 76.12 1015.3
02 07:55 N 7 16.09 Fair CLR 27 25 27.9 26.9 89% 31 76.1 1015.0 0.03
02 06:55 N 7 16.09 Fair CLR 27.3 25.8 92% 32 76.05 1014.3 0.03
02 05:57 NW 9 16.09 Light Drizzle SCT040 27.5 25.7 90% 32 76.02 1014.0
02 05:55 NW 9 16.09 Light Drizzle CLR 27.5 25.7 90% 32 76.02 1014.0
02 04:55 NW 9 16.09 Rain FEW012 27.6 25.2 87% 32 76.02 1014.0
02 03:55 N 6 16.09 Rain CLR 27.4 25.2 88% 32 76 1013.6
02 02:55 Calm 16.09 Fair CLR 27.2 25.2 89% 31 76.02 1014.0
02 01:55 N 7 16.09 Fair CLR 27.3 24.9 28.1 26.9 87% 31 76.05 1014.3
02 00:55 N 9 16.09 Fair CLR 27.2 24.8 87% 31 76.05 1014.3
01 23:55 NE 15 16.09 Fair CLR 27.1 24.7 87% 31 76.07 1014.7
01 22:55 N 11 16.09 Fair CLR 27 24.2 85% 30 76.12 1015.3
01 21:55 NE 19 16.09 A Few Clouds FEW021 27.5 24.7 85% 31 76.12 1015.3
01 20:55 NE 9 16.09 Light Drizzle CLR 27.8 25 85% 32 76.1 1015.0
01 19:55 N 15 16.09 Fair CLR 27.7 24.7 31.3 27.7 84% 32 76.1 1015.0
01 18:55 NE 19 16.09 Mostly Cloudy FEW020 BKN180 28.4 25 82% 33 76.07 1014.7
01 17:55 NE 22 16.09 Fair CLR 29.1 24.4 76% 34 76.05 1014.3
01 16:55 NE 30 16.09 Light Drizzle CLR 30.3 25.1 74% 37 76.05 1014.3
01 15:55 NE 22 16.09 Fair CLR 31.1 25.2 71% 38 76.1 1015.0
01 14:55 NE 19 16.09 Fair CLR 31 24.4 68% 37 76.12 1015.3
01 13:55 NE 22 16.09 Thunderstorm in Vicinity CLR 31.1 25.2 31.3 27.8 71% 38 76.15 1015.7
01 12:55 NE 24 16.09 Fair CLR 31.1 25.4 72% 38 76.2 1016.3
01 11:55 NE 19 16.09 Fair CLR 30.9 25.2 72% 38 76.23 1016.7
01 10:55 NE 17 16.09 Fair CLR 30.6 25.6 75% 38 76.23 1016.7
01 09:55 NE 13 16.09 Fair CLR 30.2 25 74% 37 76.17 1016.0
01 08:55 NE 15 16.09 Fair CLR 28.7 25.9 85% 35 76.15 1015.7
01 07:55 N 7 16.09 Fair CLR 27.9 25.1 27.9 26.6 85% 33 76.12 1015.3
01 06:55 N 11 16.09 Light Drizzle CLR 26.6 25 91% 30 76.1 1015.0
01 05:55 N 6 16.09 Fair CLR 26.7 24.7 89% 30 76.07 1014.7
01 04:55 Calm 16.09 Fair CLR 27.3 24.7 86% 31 76.05 1014.3
01 03:55 Calm 16.09 Fair CLR 27.3 24.9 87% 31 76.07 1014.7
01 02:55 Calm 16.09 Light Rain CLR 27.1 24.1 84% 30 76.1 1015.0
01 01:55 Calm 16.09 Fair CLR 27.1 24.3 28.1 26.7 85% 30 76.15 1015.7
01 00:55 E 15 16.09 Light Drizzle FEW019 27.6 24.6 84% 32 76.2 1016.3
31 23:55 E 6 16.09 Fair CLR 27.3 24.9 87% 31 76.17 1016.0
31 22:55 NE 7 16.09 Fair CLR 26.9 25.1 90% 30 76.23 1016.7
31 21:55 NE 9 16.09 Fair CLR 26.9 24.5 87% 30 76.17 1016.0
31 20:55 NE 11 16.09 Fair CLR 27.2 24.8 87% 31 76.15 1015.7
31 18:55 NE 13 16.09 Light Drizzle CLR 27.1 24.5 86% 31 76.12 1015.3
31 17:55 NE 24 16.09 Rain CLR 27.9 24.9 84% 32 76.15 1015.7 0.03
31 16:55 NE 15 16.09 Fair CLR 28.7 24.9 80% 34 76.15 1015.7
31 15:55 N 17 16.09 Fair CLR 29 25.4 81% 35 76.17 1016.0
31 14:55 NE 20 16.09 Light Rain CLR 30.6 25.6 75% 38 76.2 1016.3
31 13:55 NE 26 16.09 Fair CLR 31.1 26.1 31.1 26.6 75% 39 76.2 1016.3
31 12:55 NE 20 16.09 Fair CLR 30.5 26 77% 38 76.2 1016.3
31 11:55 E 13 16.09 Fair CLR 30.8 25.6 74% 38 76.28 1017.4
31 10:55 NE 11 16.09 Heavy Drizzle CLR 29.8 25.3 77% 36 76.28 1017.4
31 09:55 N 6 16.09 Light Rain CLR 29.6 25.7 80% 36 76.25 1017.0
31 08:55 N 7 16.09 Fair CLR 27.4 25.8 91% 32 76.2 1016.3
31 07:55 N 7 14.48 Fair CLR 26.7 25.4 27.4 25.7 93% 30 76.15 1015.7 0.28
31 06:55 N 6 16.09 Fair CLR 26.5 24.9 91% 29 76.12 1015.3
31 05:55 NW 9 16.09 Light Rain CLR 27.3 25.3 89% 31 76.1 1015.0
31 04:55 Calm 16.09 Fair CLR 26.3 24.7 91% 29 76.1 1015.0 0.28
31 03:55 Calm 16.09 Fair CLR 26.3 24.5 90% 29 76.1 1015.0
31 02:55 S 6 16.09 Light Rain CLR 26.8 24.2 86% 30 76.12 1015.3 0.25
31 01:55 NE 11 8.05 Heavy Rain Fog/Mist SCT005 SCT021 26.1 24.1 27.4 26 89% 28 76.17 1016.0 0.66 0.66
31 00:55 Calm 16.09 Fair CLR 27.1 25.1 89% 31 76.2 1016.3
30 23:55 Calm 16.09 Fair CLR 27 25.2 90% 31 76.23 1016.7
30 22:55 NE 6 16.09 Fair CLR 26 24.6 92% 28 76.23 1016.7
30 21:55 NE 6 16.09 Fair CLR 26.5 24.5 89% 29 76.23 1016.7
30 20:55 NE 11 16.09 Fair CLR 26.8 23.6 83% 30 76.23 1016.7
30 19:55 E 6 16.09 Fair CLR 26.7 24.1 28.5 25.3 86% 30 76.23 1016.7 0.05
30 18:55 NE 6 16.09 Fair CLR 28 23.3 76% 31 76.15 1015.7
30 17:55 Calm 16.09 Light Rain CLR 28.2 21.9 69% 31 76.12 1015.3
30 16:55 N 6 16.09 Light Rain CLR 27.7 22.8 75% 31 76.15 1015.7 0.05
30 15:55 NE 7 16.09 Light Rain CLR 26.7 23.7 84% 29 76.2 1016.3
30 14:55 Calm 16.09 Fair CLR 25.9 23.1 85% 28 76.2 1016.3 0.05
30 13:55 SE 17 16.09 Fair CLR 25.8 23.8 31.2 25.8 89% 28 76.3 1017.7
30 12:55 S 22 16.09 Thunderstorm Drizzle FEW009 26.6 23.4 83% 29 76.35 1018.4
Date Time (edt) Wind (kph) Vis. (km) Weather Sky Cond. Air Dwpt Max. Min. Relative Humidity Wind Chill (°C) Heat Index (°C) altimeter (cm) sea level (mb) 1 hr 3 hr 6 hr
6 hour
Temperature (ºC) Pressure Precipitation (cm)